Regional Weather Roundup
Issued by NWS Little Rock, AR

Home | Current Version | Previous Version | Graphics & Text | Print | Product List | Glossary On
Versions: 1 2 3 4 5 6 7 8 9 10 11 12 13 14 15 16 17 18 19 20 21 22 23 24 25 26 27 28 29 30 31 32 33 34 35 36 37 38 39 40 41 42 43 44 45 46 47 48 49 50
000
ASUS44 KLZK 011105
RWRLZK

WEATHER ROUNDUP FOR ARKANSAS
NATIONAL WEATHER SERVICE LITTLE ROCK AR
600 AM CDT MON SEP 01 2014

NOTE: "FAIR" INDICATES FEW OR NO CLOUDS BELOW 12,000 FEET WITH NO
SIGNIFICANT WEATHER AND/OR OBSTRUCTIONS TO VISIBILITY.

ARZ001-003-010-029-011200-
NORTHWEST ARKANSAS

CITY           SKY/WX    TMP DP  RH WIND       PRES   REMARKS
FAYETTEVILLE   CLOUDY    74  69  85 S5        29.99R
FORT SMITH     CLEAR     78  67  68 S7        29.89R
HARRISON       MOCLDY    74  68  81 CALM      29.99R
BENTONVILLE    CLOUDY    66  61  82 NE20G30   30.03R
ROGERS         HVY RAIN  64  61  88 N17G29    30.04R
HIGHFILL       LGT RAIN  66  64  93 NE17G35   30.02R
SPRINGDALE     CLOUDY    75  70  83 W7        30.04
$$

ARZ004-005-016-011200-
NORTH CENTRAL ARKANSAS

CITY           SKY/WX    TMP DP  RH WIND       PRES   REMARKS
BATESVILLE     CLOUDY    75  72  88 SW6       29.98R
FLIPPIN        PTCLDY    73  66  78 CALM      29.98R
MTN HOME       PTCLDY    71  70  96 CALM      29.98R
$$

ARZ040-041-011200-
WEST CENTRAL ARKANSAS

CITY           SKY/WX    TMP DP  RH WIND       PRES   REMARKS
MENA           CLOUDY    77  72  83 SW3       29.96R
MOUNT IDA      CLOUDY    77  71  82 VRB6      29.94S
$$

ARZ009-017-025-026-028-011200-
NORTHEAST ARKANSAS

CITY           SKY/WX    TMP DP  RH WIND       PRES   REMARKS
CORNING          N/A     75  75 100 SW7       29.99R
JONESBORO      MOCLDY    76  72  87 SW9       29.98R
NEWPORT        PTCLDY    74  73  96 SW6       29.99R
WALNUT RIDGE   CLEAR     73  68  83 S7        29.98R
BLYTHEVILLE    MOCLDY    76  75  97 S7        29.99R
$$

ARZ022-023-033-042-044-011200-
CENTRAL ARKANSAS

CITY           SKY/WX    TMP DP  RH WIND       PRES   REMARKS
LITTLE ROCK    MOCLDY    75  71  87 S10       29.96R
N LITTLE ROCK    N/A     75  73  94 SW9G18    29.96R
JACKSONVILLE   MOCLDY    75  72  89 S10       29.96R
SEARCY         CLEAR     72  72 100 W7        29.97R
HOT SPRINGS    CLOUDY    76  72  87 SW12G21   29.97R
RUSSELLVILLE   CLOUDY    73  70  90 CALM      29.93S
CLINTON        MOCLDY    73  73 100 CALM      29.97R FOG
$$

ARZ036-011200-
EAST ARKANSAS

CITY           SKY/WX    TMP DP  RH WIND       PRES   REMARKS
WEST MEMPHIS   MOCLDY    75  75 100 S7        29.98S
$$

ARZ050-053-066-070-073-011200-
SOUTHWEST ARKANSAS

CITY           SKY/WX    TMP DP  RH WIND       PRES   REMARKS
ARKADELPHIA    CLOUDY    73  73 100 CALM      29.97S
CAMDEN         MOCLDY    72  70  94 S3        29.98S
TEXARKANA      CLOUDY    76  74  93 S9G18     29.96S
EL DORADO      CLOUDY    72  71  97 S5        29.99S
DE QUEEN       CLOUDY    75  72  90 CALM      29.93S
$$

ARZ056-057-069-011200-
SOUTHEAST ARKANSAS

CITY           SKY/WX    TMP DP  RH WIND       PRES   REMARKS
PINE BLUFF     CLEAR     71  69  93 S7        29.98S
STUTTGART      CLEAR     73  70  88 S12       29.98S
MONTICELLO     CLEAR     74  71  91 S7        30.01R

$$





USA.gov is the U.S. government's official web portal to all federal, state and local government web resources and services.